GTI4131 KBUF-KJFK

Flight info

Callsign GTI4131
Flight time 0h 50m
Altitude 31000
Route DCT KELIE Q818 VIEEW Q82 MEMMS
Aircraft B744/H-B747/L

Departure

Time 2026-05-05 18:47
Airport Buffalo Niagara International Airport (KBUF)

Arrival

Time 2026-05-05 19:38
Airport John F. Kennedy International Airport (KJFK)
Time Latitude Longitude Altitude Speed Heading
2026-05-05 18:32 42.93953 -78.74131 736 ft 0 kts 269°
2026-05-05 18:36 42.93953 -78.74123 736 ft 2 kts 266°
2026-05-05 18:36 42.93956 -78.74103 736 ft 2 kts 246°
2026-05-05 18:36 42.93964 -78.74085 736 ft 2 kts 231°
2026-05-05 18:37 42.93974 -78.74071 736 ft 2 kts 217°
2026-05-05 18:37 42.93987 -78.74059 736 ft 2 kts 201°
2026-05-05 18:37 42.94001 -78.74054 736 ft 2 kts 187°
2026-05-05 18:37 42.94013 -78.74052 736 ft 0 kts 179°
2026-05-05 18:38 42.94015 -78.74052 736 ft 0 kts 179°
2026-05-05 18:40 42.94013 -78.74052 736 ft 1 kts 179°
2026-05-05 18:40 42.93993 -78.74052 736 ft 3 kts 179°
2026-05-05 18:40 42.93957 -78.74052 736 ft 6 kts 180°
2026-05-05 18:40 42.93906 -78.74035 736 ft 8 kts 140°
2026-05-05 18:41 42.93898 -78.73951 736 ft 12 kts 86°
2026-05-05 18:41 42.93856 -78.73846 736 ft 15 kts 167°
2026-05-05 18:41 42.93768 -78.73789 736 ft 14 kts 120°
2026-05-05 18:41 42.93716 -78.73659 736 ft 16 kts 118°
2026-05-05 18:42 42.93664 -78.73519 736 ft 17 kts 104°
2026-05-05 18:42 42.93661 -78.73349 736 ft 18 kts 89°
2026-05-05 18:42 42.93708 -78.73192 736 ft 19 kts 44°
2026-05-05 18:42 42.93808 -78.73060 736 ft 20 kts 43°
2026-05-05 18:43 42.93918 -78.72916 736 ft 22 kts 44°
2026-05-05 18:43 42.94032 -78.72765 736 ft 23 kts 44°
2026-05-05 18:43 42.94155 -78.72604 736 ft 25 kts 44°
2026-05-05 18:43 42.94283 -78.72436 736 ft 25 kts 43°
2026-05-05 18:44 42.94410 -78.72269 736 ft 24 kts 44°
2026-05-05 18:44 42.94528 -78.72115 736 ft 22 kts 44°
2026-05-05 18:44 42.94633 -78.71977 736 ft 19 kts 43°
2026-05-05 18:44 42.94721 -78.71860 736 ft 16 kts 43°
2026-05-05 18:45 42.94800 -78.71815 736 ft 10 kts 332°
2026-05-05 18:45 42.94836 -78.71873 736 ft 6 kts 287°
2026-05-05 18:45 42.94830 -78.71917 736 ft 4 kts 238°
2026-05-05 18:45 42.94821 -78.71932 736 ft 0 kts 227°
2026-05-05 18:46 42.94820 -78.71935 736 ft 1 kts 227°
2026-05-05 18:46 42.94787 -78.71981 736 ft 15 kts 224°
2026-05-05 18:47 42.94545 -78.72298 737 ft 80 kts 224°
2026-05-05 18:47 42.93991 -78.73023 738 ft 139 kts 225°
2026-05-05 18:47 42.93208 -78.74037 1047 ft 166 kts 226°
2026-05-05 18:47 42.92274 -78.75088 1489 ft 188 kts 210°
2026-05-05 18:48 42.90929 -78.75378 2084 ft 213 kts 175°
2026-05-05 18:48 42.89579 -78.74413 2791 ft 235 kts 142°
2026-05-05 18:48 42.88698 -78.72496 3466 ft 251 kts 115°
2026-05-05 18:48 42.88096 -78.70228 4152 ft 257 kts 113°
2026-05-05 18:49 42.87506 -78.67937 4909 ft 259 kts 113°
2026-05-05 18:49 42.86917 -78.65560 5690 ft 283 kts 113°
2026-05-05 18:49 42.86250 -78.62933 6424 ft 305 kts 112°
2026-05-05 18:49 42.85570 -78.60219 7193 ft 307 kts 112°
2026-05-05 18:50 42.84883 -78.57451 7948 ft 313 kts 112°
2026-05-05 18:50 42.84174 -78.54621 8714 ft 319 kts 112°
2026-05-05 18:50 42.83448 -78.51740 9473 ft 318 kts 112°
2026-05-05 18:50 42.82742 -78.48925 10223 ft 323 kts 113°
2026-05-05 18:51 42.82013 -78.46032 11000 ft 335 kts 114°
2026-05-05 18:51 42.81204 -78.42899 11803 ft 362 kts 114°
2026-05-05 18:51 42.80357 -78.39655 12565 ft 369 kts 114°
2026-05-05 18:51 42.79493 -78.36360 13324 ft 372 kts 114°
2026-05-05 18:52 42.78620 -78.33044 14079 ft 376 kts 115°
2026-05-05 18:52 42.77742 -78.29720 14826 ft 380 kts 115°
2026-05-05 18:52 42.76838 -78.26309 15586 ft 384 kts 116°
2026-05-05 18:52 42.75930 -78.22898 16339 ft 388 kts 116°
2026-05-05 18:53 42.75003 -78.19437 17096 ft 392 kts 116°
2026-05-05 18:53 42.74067 -78.15952 17849 ft 396 kts 117°
2026-05-05 18:53 42.73117 -78.12437 18603 ft 401 kts 117°
2026-05-05 18:53 42.72158 -78.08906 19352 ft 405 kts 117°
2026-05-05 18:54 42.71175 -78.05302 20109 ft 409 kts 117°
2026-05-05 18:54 42.70162 -78.01629 20878 ft 426 kts 118°
2026-05-05 18:54 42.69090 -77.97810 21649 ft 443 kts 118°
2026-05-05 18:54 42.67965 -77.93847 22416 ft 449 kts 118°
2026-05-05 18:55 42.66839 -77.89900 23170 ft 453 kts 119°
2026-05-05 18:55 42.65698 -77.85925 23925 ft 457 kts 119°
2026-05-05 18:55 42.64534 -77.81888 24685 ft 462 kts 119°
2026-05-05 18:55 42.63352 -77.77808 25447 ft 466 kts 120°
2026-05-05 18:56 42.62173 -77.73761 26197 ft 470 kts 120°
2026-05-05 18:56 42.60960 -77.69617 26959 ft 474 kts 120°
2026-05-05 18:56 42.59730 -77.65444 27720 ft 479 kts 120°
2026-05-05 18:56 42.58476 -77.61209 28486 ft 483 kts 121°
2026-05-05 18:57 42.57223 -77.57005 29241 ft 488 kts 121°
2026-05-05 18:57 42.55940 -77.52724 30004 ft 492 kts 121°
2026-05-05 18:57 42.54654 -77.48444 30681 ft 492 kts 121°
2026-05-05 18:57 42.53363 -77.44157 30770 ft 491 kts 121°
2026-05-05 18:58 42.50758 -77.35548 30797 ft 496 kts 121°
2026-05-05 18:58 42.48133 -77.26917 30794 ft 495 kts 122°
2026-05-05 18:59 42.45511 -77.18319 30797 ft 494 kts 122°
2026-05-05 18:59 42.42897 -77.09779 30796 ft 495 kts 122°
2026-05-05 19:00 42.40210 -77.01069 30812 ft 519 kts 122°
2026-05-05 19:00 42.37316 -76.91946 30797 ft 529 kts 122°
2026-05-05 19:01 42.34425 -76.82873 30796 ft 528 kts 122°
2026-05-05 19:01 42.31507 -76.73743 30797 ft 529 kts 122°
2026-05-05 19:02 42.28573 -76.64600 30801 ft 528 kts 122°
2026-05-05 19:02 42.25651 -76.55527 30804 ft 529 kts 122°
2026-05-05 19:03 42.22709 -76.46421 30805 ft 528 kts 122°
2026-05-05 19:03 42.19340 -76.37804 30803 ft 515 kts 131°
2026-05-05 19:04 42.14952 -76.30331 30802 ft 503 kts 141°
2026-05-05 19:04 42.10254 -76.23420 30806 ft 503 kts 141°
2026-05-05 19:05 42.05534 -76.16497 30807 ft 503 kts 141°
2026-05-05 19:05 42.00814 -76.09589 30806 ft 503 kts 141°
2026-05-05 19:06 41.96073 -76.02666 30806 ft 503 kts 141°
2026-05-05 19:06 41.91344 -75.95778 30805 ft 503 kts 141°
2026-05-05 19:07 41.86636 -75.88938 30829 ft 503 kts 141°
2026-05-05 19:07 41.81861 -75.82016 30839 ft 504 kts 141°
2026-05-05 19:08 41.77143 -75.75196 30846 ft 504 kts 141°
2026-05-05 19:08 41.72375 -75.68319 30851 ft 503 kts 141°
2026-05-05 19:09 41.67609 -75.61460 30850 ft 504 kts 141°
2026-05-05 19:09 41.62875 -75.54660 30849 ft 503 kts 141°
2026-05-05 19:10 41.58103 -75.47828 30850 ft 504 kts 141°
2026-05-05 19:10 41.53336 -75.41017 30861 ft 503 kts 141°
2026-05-05 19:11 41.48556 -75.34200 30880 ft 503 kts 141°
2026-05-05 19:11 41.43800 -75.27431 30892 ft 502 kts 141°
2026-05-05 19:12 41.39043 -75.20675 30896 ft 502 kts 141°
2026-05-05 19:12 41.34279 -75.13926 30895 ft 503 kts 141°
2026-05-05 19:13 41.29481 -75.07144 30820 ft 503 kts 141°
2026-05-05 19:13 41.27110 -75.03802 30241 ft 503 kts 141°
2026-05-05 19:13 41.24701 -75.00406 29653 ft 500 kts 141°
2026-05-05 19:14 41.22337 -74.97070 29067 ft 496 kts 140°
2026-05-05 19:14 41.20020 -74.93800 28490 ft 492 kts 140°
2026-05-05 19:14 41.17668 -74.90477 27900 ft 491 kts 140°
2026-05-05 19:14 41.15482 -74.86985 27309 ft 492 kts 134°
2026-05-05 19:15 41.13609 -74.83295 26718 ft 483 kts 128°
2026-05-05 19:15 41.12034 -74.79426 26125 ft 473 kts 124°
2026-05-05 19:15 41.10576 -74.75575 25531 ft 460 kts 124°
2026-05-05 19:15 41.09159 -74.71825 24936 ft 448 kts 124°
2026-05-05 19:16 41.07803 -74.68229 24353 ft 437 kts 123°
2026-05-05 19:16 41.06455 -74.64661 23761 ft 427 kts 123°
2026-05-05 19:16 41.05139 -74.61180 23171 ft 418 kts 123°
2026-05-05 19:16 41.03846 -74.57770 22740 ft 413 kts 123°
2026-05-05 19:17 41.02568 -74.54420 22364 ft 414 kts 123°
2026-05-05 19:17 41.01261 -74.51012 21983 ft 414 kts 123°
2026-05-05 19:17 40.99958 -74.47630 21602 ft 412 kts 123°
2026-05-05 19:17 40.98652 -74.44256 21103 ft 411 kts 123°
2026-05-05 19:18 40.97353 -74.40915 20596 ft 407 kts 123°
2026-05-05 19:18 40.96072 -74.37633 20093 ft 404 kts 123°
2026-05-05 19:18 40.94779 -74.34335 19583 ft 401 kts 124°
2026-05-05 19:18 40.93502 -74.31091 19071 ft 398 kts 124°
2026-05-05 19:19 40.92234 -74.27879 18561 ft 395 kts 124°
2026-05-05 19:19 40.90966 -74.24682 18050 ft 393 kts 124°
2026-05-05 19:19 40.89689 -74.21475 17537 ft 390 kts 124°
2026-05-05 19:19 40.88440 -74.18350 17047 ft 387 kts 124°
2026-05-05 19:20 40.87183 -74.15219 16551 ft 385 kts 124°
2026-05-05 19:20 40.85931 -74.12111 16051 ft 379 kts 124°
2026-05-05 19:20 40.84689 -74.09127 15545 ft 366 kts 129°
2026-05-05 19:20 40.83083 -74.06629 15052 ft 349 kts 140°
2026-05-05 19:21 40.81391 -74.04388 14535 ft 342 kts 141°
2026-05-05 19:21 40.79587 -74.02525 14035 ft 326 kts 156°
2026-05-05 19:21 40.77586 -74.01256 13547 ft 317 kts 160°
2026-05-05 19:21 40.75577 -74.00082 13043 ft 312 kts 161°
2026-05-05 19:22 40.73613 -73.98945 12543 ft 308 kts 161°
2026-05-05 19:22 40.71663 -73.97820 12046 ft 307 kts 161°
2026-05-05 19:22 40.69725 -73.96708 11551 ft 306 kts 161°
2026-05-05 19:22 40.67781 -73.95592 11054 ft 306 kts 161°
2026-05-05 19:23 40.65843 -73.94475 10551 ft 303 kts 161°
2026-05-05 19:23 40.63925 -73.93358 10044 ft 300 kts 161°
2026-05-05 19:23 40.62038 -73.92259 9595 ft 295 kts 161°
2026-05-05 19:23 40.60209 -73.91193 9249 ft 288 kts 161°
2026-05-05 19:24 40.58385 -73.90131 8893 ft 281 kts 160°
2026-05-05 19:24 40.56620 -73.89104 8541 ft 276 kts 160°
2026-05-05 19:24 40.54887 -73.88099 8194 ft 272 kts 161°
2026-05-05 19:24 40.53243 -73.86893 7839 ft 275 kts 145°
2026-05-05 19:25 40.51994 -73.85006 7503 ft 280 kts 124°
2026-05-05 19:25 40.51283 -73.82591 7274 ft 282 kts 109°
2026-05-05 19:25 40.50836 -73.80114 7027 ft 277 kts 108°
2026-05-05 19:25 40.50422 -73.77681 6777 ft 273 kts 107°
2026-05-05 19:26 40.50011 -73.75232 6522 ft 273 kts 107°
2026-05-05 19:26 40.49600 -73.72800 6274 ft 271 kts 108°
2026-05-05 19:26 40.49192 -73.70386 6030 ft 270 kts 107°
2026-05-05 19:26 40.48785 -73.67998 5782 ft 268 kts 107°
2026-05-05 19:27 40.48424 -73.65610 5525 ft 268 kts 100°
2026-05-05 19:27 40.48474 -73.63145 5276 ft 274 kts 85°
2026-05-05 19:27 40.49117 -73.60774 5030 ft 279 kts 62°
2026-05-05 19:27 40.50367 -73.58816 4791 ft 283 kts 41°
2026-05-05 19:28 40.52025 -73.57454 4563 ft 286 kts 28°
2026-05-05 19:28 40.53795 -73.56271 4312 ft 283 kts 27°
2026-05-05 19:28 40.55530 -73.55123 4064 ft 281 kts 27°
2026-05-05 19:28 40.57275 -73.53973 3815 ft 279 kts 27°
2026-05-05 19:29 40.59008 -73.52831 3565 ft 274 kts 27°
2026-05-05 19:29 40.60673 -73.51734 3313 ft 266 kts 27°
2026-05-05 19:29 40.62307 -73.50658 3056 ft 258 kts 27°
2026-05-05 19:29 40.63878 -73.49634 2800 ft 251 kts 27°
2026-05-05 19:30 40.65435 -73.48631 2572 ft 244 kts 27°
2026-05-05 19:30 40.66943 -73.47660 2327 ft 244 kts 27°
2026-05-05 19:30 40.68468 -73.46677 2080 ft 244 kts 27°
2026-05-05 19:30 40.70058 -73.46080 1937 ft 235 kts 358°
2026-05-05 19:31 40.71572 -73.46619 1956 ft 227 kts 326°
2026-05-05 19:31 40.72694 -73.48055 1954 ft 224 kts 303°
2026-05-05 19:31 40.73620 -73.49693 1932 ft 224 kts 302°
2026-05-05 19:31 40.74545 -73.51359 1929 ft 225 kts 302°
2026-05-05 19:32 40.75443 -73.52973 1942 ft 201 kts 302°
2026-05-05 19:32 40.76246 -73.54398 1908 ft 191 kts 302°
2026-05-05 19:32 40.77040 -73.55807 1923 ft 194 kts 302°
2026-05-05 19:32 40.77846 -73.57239 1919 ft 195 kts 302°
2026-05-05 19:33 40.78659 -73.58697 1911 ft 196 kts 301°
2026-05-05 19:33 40.79088 -73.60348 1894 ft 187 kts 265°
2026-05-05 19:33 40.78761 -73.61942 1913 ft 181 kts 237°
2026-05-05 19:33 40.78091 -73.63339 1909 ft 180 kts 232°
2026-05-05 19:34 40.77410 -73.64728 1904 ft 180 kts 232°
2026-05-05 19:34 40.76579 -73.65918 1905 ft 171 kts 214°
2026-05-05 19:34 40.75681 -73.66801 1887 ft 155 kts 212°
2026-05-05 19:35 40.73915 -73.68471 1915 ft 157 kts 207°
2026-05-05 19:35 40.72934 -73.69148 1944 ft 161 kts 203°
2026-05-05 19:35 40.71934 -73.69809 1855 ft 162 kts 204°
2026-05-05 19:35 40.70945 -73.70480 1692 ft 158 kts 206°
2026-05-05 19:36 40.70002 -73.71168 1463 ft 156 kts 208°
2026-05-05 19:36 40.69070 -73.71905 1255 ft 154 kts 209°
2026-05-05 19:36 40.68158 -73.72620 994 ft 154 kts 209°
2026-05-05 19:36 40.67234 -73.73337 732 ft 153 kts 209°
2026-05-05 19:37 40.66327 -73.74052 483 ft 152 kts 212°
2026-05-05 19:37 40.65433 -73.74754 288 ft 149 kts 211°
2026-05-05 19:37 40.64544 -73.75463 78 ft 150 kts 212°
2026-05-05 19:37 40.63692 -73.76135 20 ft 126 kts 211°
2026-05-05 19:38 40.63134 -73.76572 16 ft 60 kts 211°
2026-05-05 19:38 40.62866 -73.76781 16 ft 39 kts 210°
2026-05-05 19:38 40.62648 -73.76952 15 ft 33 kts 210°
2026-05-05 19:38 40.62582 -73.77168 14 ft 20 kts 289°
2026-05-05 19:39 40.62624 -73.77227 15 ft 0 kts 332°
2026-05-05 19:39 40.62637 -73.77235 15 ft 4 kts 339°
2026-05-05 19:39 40.62687 -73.77254 16 ft 10 kts 346°
2026-05-05 19:39 40.62775 -73.77222 16 ft 16 kts 30°
2026-05-05 19:40 40.62893 -73.77131 16 ft 21 kts 30°
2026-05-05 19:40 40.63022 -73.77030 16 ft 22 kts 31°
2026-05-05 19:40 40.63170 -73.76953 16 ft 23 kts
2026-05-05 19:40 40.63341 -73.76945 16 ft 25 kts
2026-05-05 19:41 40.63518 -73.76923 19 ft 26 kts
2026-05-05 19:41 40.63706 -73.76918 19 ft 27 kts
2026-05-05 19:41 40.63907 -73.76914 19 ft 28 kts
2026-05-05 19:41 40.64102 -73.76901 19 ft 27 kts
2026-05-05 19:42 40.64284 -73.76888 19 ft 24 kts 346°
2026-05-05 19:42 40.64427 -73.76969 19 ft 20 kts 338°
2026-05-05 19:42 40.64561 -73.76987 19 ft 19 kts
2026-05-05 19:42 40.64692 -73.77007 19 ft 18 kts 337°
2026-05-05 19:43 40.64785 -73.77120 19 ft 18 kts 301°
2026-05-05 19:43 40.64851 -73.77268 19 ft 18 kts 300°
2026-05-05 19:43 40.64923 -73.77423 19 ft 20 kts 301°
2026-05-05 19:43 40.65001 -73.77596 19 ft 23 kts 300°
2026-05-05 19:44 40.65091 -73.77794 19 ft 26 kts 301°
2026-05-05 19:44 40.65191 -73.78014 19 ft 28 kts 300°
2026-05-05 19:44 40.65286 -73.78224 19 ft 24 kts 301°
2026-05-05 19:44 40.65358 -73.78371 19 ft 12 kts 328°
2026-05-05 19:45 40.65441 -73.78355 19 ft 14 kts 16°
2026-05-05 19:45 40.65554 -73.78336 19 ft 18 kts 357°
2026-05-05 19:45 40.65649 -73.78460 19 ft 22 kts 300°
2026-05-05 19:45 40.65721 -73.78622 19 ft 18 kts 300°
2026-05-05 19:46 40.65781 -73.78752 19 ft 14 kts 301°
2026-05-05 19:46 40.65847 -73.78793 19 ft 10 kts 19°
2026-05-05 19:46 40.65901 -73.78758 19 ft 6 kts 28°
2026-05-05 19:46 40.65943 -73.78728 19 ft 7 kts 27°
2026-05-05 19:47 40.65987 -73.78700 19 ft 6 kts 20°
2026-05-05 19:47 40.66051 -73.78680 19 ft 12 kts 17°
2026-05-05 19:47 40.66124 -73.78631 19 ft 9 kts 30°
2026-05-05 19:47 40.66147 -73.78612 19 ft 0 kts 31°